{"data":{"norad_id":63779,"intl_designator":"2025-091E","name":"STARLINK-33881","alt_names":[],"object_type":"PAYLOAD","status":"ACTIVE","operator":null,"country":"US","launch_date":"2025-05-02","launch_site_code":"AFETR","launch_vehicle":null,"mission":null,"orbit_class":"UNKNOWN","rcs_meters":null,"size_class":null,"mass_kg":null,"dimensions":null,"purposes":["comms"],"wikipedia_slug":null,"has_3d_model":false,"image_url":null,"decayed_at":null,"tle_current":{"epoch":"2026-05-24T21:41:42.095616Z","epoch_age_seconds":83656,"freshness":"FRESH","line1":"1 63779U 25091E   26144.90395944  .00016802  00000+0  61858-3 0  9996","line2":"2 63779  43.0016 342.5104 0001472 268.4731  91.5952 15.27586445 60556","mean_motion":15.27586445,"eccentricity":0.0001472,"inclination_deg":43.0016,"raan_deg":342.5104,"arg_perigee_deg":268.4731,"mean_anomaly_deg":91.5952,"bstar":0.00061858,"rev_number":6055,"period_min":94.266350995279,"perigee_km":482.01983370634,"apogee_km":484.03976121151,"semimajor_km":6861.1667974589,"source":"CELESTRAK","updated_at":"2026-05-25T13:38:20.133259Z"}}}